Sioux Gateway Col. Bud Day Field
KSUX : now visible

Airfield :











YOU CAN JOIN US ON...

 
LOGIN :

Register | Disclaimer

   EN    FR    IT 

 









Legend :    VFR   Marginal VFR   IFR   Intensive IFR   Very Intensive IFR
Visi :
Ceiling :
>= 8 km
>= 3000ft
5 to 8 km
1000 to 3000 ft
1500m to 5 km
500 to 1000 ft
800 to 1500m
200 to 500 ft
< 800m
< 200 ft
Symbols :   Thunderstorms  Fog  Heavy snow  Heavy precipitations  Wind > 20 kt






- Airport Elevation : 1098 ft
- IATA code : SUX


KSUX - Sioux Gateway Col. Bud Day Field

CURRENT METAR :
  • 050052Z 13010KT 10SM OVC055 24/17 A2999 RMK AO2 SLP149 T02440167

EXPIRED METARs :
  • 042352Z 13011KT 10SM SCT049 OVC060 26/17 A2998 RMK AO2 SLP148 T02560167 10272 20256 58007
  • 042252Z 15010G20KT 10SM BKN049 26/17 A2999 RMK AO2 SLP153 T02610167

TAF KSUX
Valid from the 05 at 00:00 until the 06 at 00:00 UTC


042355Z 0500/0524 16012G19KT P6SM SCT100 BKN250
FM050200 14007KT P6SM VCSH BKN100
FM050900 15005KT P6SM OVC070
FM052300 21006KT P6SM SCT250
KZMP FIR / North America



MET'MAP, your aeronautical weather chart ! - Copyright ORBIFLY December 2007 - Disclaimer

ORBIFLY MET'MAP TEAM :

Programming & Development : Alexandra Zaïnal
Concept & original design : Baudouin d'Aumeries
Assistance for programming : Marc-Olivier Méhu
Technical & hardware support : Manuel Goepfert

Contact : metmap@orbifly.com




SOURCES & CREDITS :

   NOAA       Earth
Advisory